Location: Danville Conservation Area
(38.8674°N, 91.5143°W)
Time: 10:36:26
(UTC-06:00)

Tiangong - Visible Passes

Search period start: 03 December 2021 00:00
Search period end: 13 December 2021 00:00
Orbit: 380 x 384 km, 41.5° (Epoch: 02 December)

Date Brightness Start Highest point End Pass type
(mag) Time Alt. Az. Time Alt. Az. Time Alt. Az.
05 Dec 4.1 18:58:48 10° SSW 18:59:01 11° SSW 18:59:01 11° SSW visible
06 Dec 3.3 17:59:26 10° S 18:01:09 14° SE 18:01:39 13° SE visible
07 Dec 2.4 18:34:09 10° SW 18:36:22 33° SSW 18:36:22 33° SSW visible
08 Dec 2.7 17:34:10 10° SSW 17:36:45 24° SSE 17:38:51 13° E visible
08 Dec 4.1 19:10:11 10° WSW 19:11:01 17° WSW 19:11:01 17° WSW visible
09 Dec 1.1 18:09:41 10° WSW 18:12:49 67° SSE 18:13:26 50° E visible
10 Dec 2.0 17:09:22 10° SW 17:12:20 39° SSE 17:15:20 10° E visible
10 Dec 2.7 18:45:56 10° W 18:47:57 34° WNW 18:47:57 34° WNW visible
11 Dec 1.0 17:45:18 10° WSW 17:48:28 82° NNW 17:50:16 23° ENE visible
11 Dec 4.6 19:22:20 10° WNW 19:22:26 11° WNW 19:22:26 11° WNW visible
12 Dec 1.4 18:21:39 10° W 18:24:43 51° N 18:24:43 51° N visible
